Regional Weather Roundup
Issued by NWS

Home | Current Version | Previous Version | Text Only | Print | Product List | Glossary Off
Versions: 1 2 3 4 5 6 7 8 9 10 11 12 13 14 15 16 17 18 19 20 21 22 23 24 25 26 27 28 29 30 31 32 33 34 35 36 37 38 39 40 41 42 43 44 45 46 47 48 49 50

000
ASUS43 KLSX 262357
RWRMO

WEATHER SUMMARY FOR MISSOURI
NATIONAL WEATHER SERVICE SPRINGFIELD MO
700 PM CDT MON JUN 26 2017

NOTE: "FAIR" INDICATES FEW OR NO CLOUDS BELOW 12,000 FEET WITH NO
       SIGNIFICANT WEATHER AND/OR OBSTRUCTIONS TO VISIBILITY.
       CURRENT SKY AND/OR WEATHER CONDITIONS ARE NOT AVAILABLE FOR
       CHILLICOTHE AND FARMINGTON.

MOZ001>031-035>038-043-044-053-054-270100-
...NORTHERN AND WESTERN MISSOURI...

CITY           SKY/WX    TMP DP  RH WIND       PRES   REMARKS
KANSAS CTY INT LGT RAIN  66  61  84 NE3       30.12F
6HR MIN TEMP:  60; 6HR MAX TEMP:  71; 6HR PCP:  0.05;

LEE`S SUMMIT   PTSUNNY   71  54  54 E5        30.13R
6HR MIN TEMP:  61; 6HR MAX TEMP:  73;

ST JOSEPH      CLOUDY    68  60  75 E5        30.11F
6HR MIN TEMP:  58; 6HR MAX TEMP:  70; 6HR PCP:  0.05;

CHILLICOTHE      N/A     71  57  61 W6        30.12S
6HR MIN TEMP:  61; 6HR MAX TEMP:  72;


$$
MOZ066>068-077>081-088>096-101>105-270100-
...SOUTHWEST MISSOURI...

CITY           SKY/WX    TMP DP  RH WIND       PRES   REMARKS
SPRINGFIELD    CLOUDY    68  58  70 E7        30.12S
6HR MIN TEMP:  67; 6HR MAX TEMP:  74; 6HR PCP:  0.06;

JOPLIN         SUNNY     75  65  70 E8        30.08S
6HR MIN TEMP:  73; 6HR MAX TEMP:  86; 6HR PCP: TRACE;

BRANSON        PTSUNNY   75  64  69 E5        30.11S

$$
MOZ032>034-039>042-045>050-055>058-069>072-270100-
...CENTRAL MISSOURI...

CITY           SKY/WX    TMP DP  RH WIND       PRES   REMARKS
COLUMBIA       NOT AVBL
JEFFERSON CITY SUNNY     67  58  72 NW3       30.11S
6HR MIN TEMP:  63; 6HR MAX TEMP:  76; 6HR PCP:  0.18;

ROLLA          CLOUDY    63  59  87 SE3       30.11R
6HR MIN TEMP:  60; 6HR MAX TEMP:  79; 6HR PCP:  0.05;

SEDALIA        PTSUNNY   69  63  81 CALM      30.13R
6HR MIN TEMP:  58; 6HR MAX TEMP:  70; 6HR PCP:  0.36;

WARRENSBURG    CLOUDY    70  55  60 SE3       30.10S

$$
MOZ051-052-059>065-270100-
...EAST CENTRAL MISSOURI...

CITY           SKY/WX    TMP DP  RH WIND       PRES   REMARKS
ST LOUIS INTL  MOSUNNY   72  52  49 W10       30.10F
6HR MIN TEMP:  72; 6HR MAX TEMP:  81; 6HR PCP: TRACE;


$$
MOZ072>076-082>087-097>100-106>115-270100-
...SOUTH CENTRAL AND SOUTHEAST MISSOURI...

CITY           SKY/WX    TMP DP  RH WIND       PRES   REMARKS
CAPE GIRARDEAU CLOUDY    70  64  81 S5        30.12S
6HR MIN TEMP:  70; 6HR MAX TEMP:  79; 6HR PCP: TRACE;

POPLAR BLUFF   LGT RAIN  66  63  90 CALM      30.12F
6HR MIN TEMP:  66; 6HR MAX TEMP:  79; 6HR PCP:  0.10;

WEST PLAINS    CLOUDY    62  59  90 NE10      30.16F
6HR MIN TEMP:  61; 6HR MAX TEMP:  78; 6HR PCP:  0.01;


$$



USA.gov is the U.S. government's official web portal to all federal, state and local government web resources and services.